Location: Eaton Estates
(41.3089°N, 82.0057°W)
Time: 01:31:47
(UTC+00:00)

BREEZE-M DEB (TANK) - Pass Details

Date: 17 June 2021
Orbit: 310 x 15720 km, 49.5° (Epoch: 02 August)

Event Time Altitude Azimuth Distance (km) Brightness Sun altitude
Exits shadow 06:13:02 46° 200° (SSW) 1,571 4.1 -24.5°
Maximum altitude 06:15:11 69° 135° (SE) 1,644 4.4 -24.4°
Drops below altitude 10° 06:38:51 10° 58° (ENE) 9,706 9.2 -23.3°
Sets 06:54:29 0° 60° (ENE) 13,834 10.2 -22.3°
